TimeMDT,TemperatureF,Dew PointF,Humidity,Sea Level PressureIn,VisibilityMPH,Wind Direction,Wind SpeedMPH,Gust SpeedMPH,PrecipitationIn,Events,Conditions,WindDirDegrees,DateUTC
12:15 AM,47.8,42.4,82,29.92,10.0,WNW,8.1,-,N/A,,Scattered Clouds,300,2013-05-22 06:15:00
12:35 AM,47.5,42.8,84,29.92,10.0,NW,6.9,-,N/A,,Scattered Clouds,320,2013-05-22 06:35:00
12:55 AM,47.3,42.4,83,29.92,10.0,West,5.8,-,N/A,,Clear,280,2013-05-22 06:55:00
1:15 AM,46.4,42.4,86,29.92,10.0,WNW,6.9,-,N/A,,Scattered Clouds,290,2013-05-22 07:15:00
2:06 AM,46.4,42.8,87,29.92,10.0,WNW,11.5,17.3,N/A,,Mostly Cloudy,300,2013-05-22 08:06:00
2:43 AM,48.2,42.8,82,29.93,10.0,West,10.4,-,N/A,,Overcast,280,2013-05-22 08:43:00
3:06 AM,48.2,42.8,82,29.94,10.0,NW,12.7,-,N/A,,Overcast,310,2013-05-22 09:06:00
3:22 AM,48.2,42.8,82,29.94,10.0,WNW,9.2,-,N/A,,Overcast,300,2013-05-22 09:22:00
3:42 AM,48.2,42.8,82,29.95,10.0,NW,9.2,-,N/A,,Overcast,310,2013-05-22 09:42:00
4:02 AM,48.2,42.8,82,29.95,10.0,NNW,15.0,19.6,N/A,,Overcast,330,2013-05-22 10:02:00
4:15 AM,48.7,42.6,79,29.94,10.0,NNW,12.7,16.1,N/A,,Overcast,330,2013-05-22 10:15:00
4:35 AM,49.1,42.8,79,29.94,10.0,NNW,9.2,-,N/A,,Overcast,330,2013-05-22 10:35:00
4:55 AM,49.1,42.8,79,29.95,10.0,NW,9.2,-,N/A,,Overcast,320,2013-05-22 10:55:00
5:15 AM,49.1,43.0,79,29.95,10.0,NNW,10.4,-,N/A,,Overcast,330,2013-05-22 11:15:00
5:35 AM,48.7,42.4,79,29.95,10.0,North,11.5,-,N/A,,Overcast,350,2013-05-22 11:35:00
5:55 AM,48.7,42.6,79,29.95,10.0,NNW,9.2,-,N/A,,Overcast,340,2013-05-22 11:55:00
6:15 AM,49.1,42.3,77,29.95,10.0,NNW,12.7,-,N/A,,Overcast,330,2013-05-22 12:15:00
6:35 AM,49.1,42.1,77,29.95,10.0,NNW,11.5,-,N/A,,Overcast,340,2013-05-22 12:35:00
6:55 AM,50.0,43.0,77,29.95,10.0,NNW,9.2,-,N/A,,Overcast,330,2013-05-22 12:55:00
7:15 AM,50.2,43.0,76,29.96,10.0,North,9.2,-,N/A,,Overcast,350,2013-05-22 13:15:00
7:35 AM,50.4,42.8,75,29.96,10.0,NNW,12.7,17.3,N/A,,Overcast,340,2013-05-22 13:35:00
7:55 AM,50.5,42.6,74,29.96,10.0,North,12.7,-,N/A,,Overcast,360,2013-05-22 13:55:00
8:15 AM,51.1,43.2,74,29.97,10.0,North,13.8,-,N/A,,Overcast,360,2013-05-22 14:15:00
8:35 AM,51.3,42.8,73,29.97,10.0,North,11.5,-,N/A,,Overcast,350,2013-05-22 14:35:00
8:55 AM,52.2,43.2,71,29.96,10.0,NNW,12.7,18.4,N/A,,Overcast,340,2013-05-22 14:55:00
9:15 AM,53.2,43.9,71,29.96,10.0,North,13.8,17.3,N/A,,Overcast,360,2013-05-22 15:15:00
9:35 AM,53.6,44.4,71,29.97,10.0,NNW,11.5,17.3,N/A,,Overcast,330,2013-05-22 15:35:00
9:55 AM,55.4,44.4,67,29.97,10.0,NNW,12.7,18.4,N/A,,Mostly Cloudy,330,2013-05-22 15:55:00
10:15 AM,55.8,45.1,67,29.97,10.0,NNW,10.4,-,N/A,,Mostly Cloudy,340,2013-05-22 16:15:00
10:35 AM,57.6,46.0,65,29.97,10.0,North,11.5,-,N/A,,Mostly Cloudy,350,2013-05-22 16:35:00
10:55 AM,57.9,46.4,65,29.96,10.0,NW,8.1,-,N/A,,Scattered Clouds,320,2013-05-22 16:55:00
11:15 AM,58.1,46.0,64,29.96,10.0,NW,8.1,-,N/A,,Scattered Clouds,310,2013-05-22 17:15:00
11:35 AM,59.0,45.9,62,29.96,10.0,North,10.4,-,N/A,,Scattered Clouds,350,2013-05-22 17:35:00
11:55 AM,60.8,47.7,62,29.96,10.0,NNW,8.1,-,N/A,,Scattered Clouds,340,2013-05-22 17:55:00
12:15 PM,61.2,46.9,60,29.96,10.0,North,8.1,-,N/A,,Scattered Clouds,350,2013-05-22 18:15:00
12:35 PM,61.5,46.9,59,29.96,10.0,NNW,9.2,-,N/A,,Scattered Clouds,340,2013-05-22 18:35:00
12:55 PM,62.4,47.7,58,29.95,10.0,NW,9.2,-,N/A,,Scattered Clouds,320,2013-05-22 18:55:00
1:15 PM,63.1,47.3,56,29.95,10.0,North,11.5,-,N/A,,Scattered Clouds,350,2013-05-22 19:15:00
1:35 PM,64.0,46.8,53,29.95,10.0,NNE,5.8,-,N/A,,Scattered Clouds,20,2013-05-22 19:35:00
1:55 PM,65.5,46.9,51,29.95,10.0,North,11.5,16.1,N/A,,Clear,350,2013-05-22 19:55:00
2:15 PM,65.8,46.9,50,29.95,10.0,NNE,11.5,-,N/A,,Clear,20,2013-05-22 20:15:00
2:35 PM,65.5,46.2,50,29.95,10.0,NNW,12.7,-,N/A,,Clear,340,2013-05-22 20:35:00
2:55 PM,66.2,46.2,49,29.95,10.0,North,8.1,-,N/A,,Clear,10,2013-05-22 20:55:00
3:15 PM,66.6,46.0,48,29.94,10.0,NNW,9.2,-,N/A,,Clear,340,2013-05-22 21:15:00
3:35 PM,67.3,46.0,46,29.95,10.0,North,4.6,-,N/A,,Clear,350,2013-05-22 21:35:00
3:55 PM,68.0,46.8,47,29.95,10.0,North,9.2,-,N/A,,Scattered Clouds,350,2013-05-22 21:55:00
4:15 PM,68.2,46.6,46,29.95,10.0,NNE,12.7,-,N/A,,Scattered Clouds,30,2013-05-22 22:15:00
4:35 PM,67.5,45.9,46,29.95,10.0,NNE,4.6,10.4,N/A,,Scattered Clouds,30,2013-05-22 22:35:00
4:55 PM,67.5,46.0,46,29.95,10.0,NNE,10.4,-,N/A,,Scattered Clouds,20,2013-05-22 22:55:00
5:15 PM,67.1,46.9,48,29.96,10.0,North,12.7,17.3,N/A,,Scattered Clouds,10,2013-05-22 23:15:00
5:35 PM,66.4,46.6,49,29.96,10.0,NNE,13.8,-,N/A,,Scattered Clouds,30,2013-05-22 23:35:00
5:55 PM,65.1,47.3,52,29.97,10.0,NNE,16.1,-,N/A,,Clear,30,2013-05-22 23:55:00
6:15 PM,63.7,46.9,54,29.98,10.0,NNE,18.4,-,N/A,,Clear,30,2013-05-23 00:15:00
6:35 PM,62.6,46.8,56,29.99,10.0,NE,16.1,-,N/A,,Clear,40,2013-05-23 00:35:00
6:55 PM,61.2,46.6,59,30.00,10.0,NE,15.0,-,N/A,,Clear,40,2013-05-23 00:55:00
7:15 PM,60.1,46.2,60,30.00,10.0,NNE,13.8,-,N/A,,Clear,30,2013-05-23 01:15:00
7:35 PM,58.5,46.8,65,30.02,10.0,NE,13.8,20.7,N/A,,Clear,40,2013-05-23 01:35:00
7:55 PM,56.7,46.6,69,30.03,10.0,NE,12.7,-,N/A,,Clear,40,2013-05-23 01:55:00
8:15 PM,55.6,46.4,71,30.04,10.0,NE,12.7,18.4,N/A,,Clear,40,2013-05-23 02:15:00
8:35 PM,54.5,46.2,74,30.05,10.0,NE,6.9,-,N/A,,Clear,50,2013-05-23 02:35:00
8:55 PM,53.6,46.0,76,30.06,10.0,NE,5.8,-,N/A,,Clear,50,2013-05-23 02:55:00
9:15 PM,52.7,46.2,79,30.07,10.0,NE,6.9,-,N/A,,Clear,40,2013-05-23 03:15:00
9:35 PM,53.1,46.4,78,30.08,10.0,NE,10.4,-,N/A,,Clear,40,2013-05-23 03:35:00
9:55 PM,52.7,46.4,79,30.09,10.0,NE,9.2,-,N/A,,Clear,50,2013-05-23 03:55:00
10:15 PM,52.0,46.0,80,30.09,10.0,NE,11.5,-,N/A,,Clear,40,2013-05-23 04:15:00
10:35 PM,51.8,45.7,80,30.10,10.0,NE,12.7,-,N/A,,Clear,50,2013-05-23 04:35:00
10:55 PM,51.6,45.7,80,30.10,10.0,NE,11.5,-,N/A,,Scattered Clouds,40,2013-05-23 04:55:00
11:15 PM,52.5,46.4,80,30.10,10.0,NE,20.7,-,N/A,,Overcast,40,2013-05-23 05:15:00
11:35 PM,51.8,45.5,79,30.10,10.0,NE,19.6,25.3,N/A,,Overcast,50,2013-05-23 05:35:00
11:55 PM,51.1,44.8,79,30.09,10.0,NE,20.7,26.5,N/A,,Overcast,40,2013-05-23 05:55:00